CAPE
4 2 1 1 1 1 0 1 0 0 0 0 0 0 0 0 0 0 0 0 0 12 0 0 0 0 23 43 121 338 0 0 38 2 5 118 642 254 59 49 51 13 25 0 53
1 3 2 2 0 3 3 3 0 0 0 0 0 0 0 0 0 0 0 0 0 0 0 0 0 0 0 14 141 230 27 80 120 65 435 485 169 224 246 54 55 5 0 6 40
2 2 2 1 4 3 3 3 0 0 0 0 0 0 0 0 0 0 0 111 0 0 0 0 0 0 0 7 130 411 377 418 312 265 620 162 8 212 412 15 25 1 0 0 37
0 1 0 0 4 4 3 0 0 0 0 0 0 0 0 0 0 0 0 0 0 0 0 0 0 0 0 11 266 395 264 408 452 313 50 14 4 65 343 90 36 23 2 0 7
0 0 0 0 0 1 3 0 0 0 0 0 0 0 0 0 0 0 0 0 0 0 0 0 0 0 2 120 508 510 572 447 352 295 400 160 30 132 26 170 45 6 0 0 9
0 0 0 0 0 0 0 0 0 0 0 0 0 0 0 0 0 0 0 0 0 0 0 0 0 0 0 50 353 194 552 437 415 400 223 307 507 195 247 130 116 12 3 3 19
0 0 0 0 0 0 0 0 0 0 0 0 0 0 0 0 0 0 0 0 0 0 0 0 0 0 0 7 615 326 250 149 302 254 193 230 177 146 133 120 117 26 23 27 20
0 0 0 0 0 0 0 0 0 0 0 0 0 0 0 0 0 0 0 0 0 0 0 0 0 0 0 3 156 307 190 24 240 480 213 75 77 98 85 74 32 88 77 63 41
0 0 0 0 0 0 0 0 0 0 0 0 0 0 0 0 0 0 0 0 0 0 0 0 0 0 0 0 253 174 36 15 225 121 348 12 35 166 29 73 119 79 51 35 67
0 0 0 0 0 0 0 0 0 0 0 0 0 0 0 0 0 0 0 0 0 0 0 0 0 0 0 0 0 325 42 2 100 555 519 22 1 66 12 40 90 55 54 40 29
0 0 0 0 0 0 0 0 0 0 0 0 0 0 0 0 0 0 0 0 0 0 0 0 0 0 0 0 104 107 56 2 0 30 128 229 21 72 0 13 135 109 108 25 50
0 0 0 0 0 0 0 0 0 0 0 0 0 0 0 0 0 0 0 0 0 0 0 0 0 0 0 32 34 39 62 25 47 126 195 415 492 202 35 139 154 413 131 79 119
0 0 0 0 0 0 0 0 0 0 0 0 0 0 0 0 0 0 0 0 0 0 0 0 0 0 0 1 96 73 123 151 155 305 413 166 184 211 177 64 236 172 149 111 179
0 0 0 0 0 0 0 0 0 0 0 0 0 0 0 0 0 0 0 0 0 0 0 0 0 0 0 0 24 20 84 233 94 222 264 455 143 45 56 148 135 152 47 80 150
0 0 0 0 0 0 0 0 0 0 0 0 0 0 0 0 0 0 0 0 0 0 0 0 0 0 0 0 0 0 0 28 7 0 0 390 276 160 48 3 105 291 263 116 249
0 0 0 0 0 0 0 0 0 0 0 0 0 0 0 0 0 0 0 0 0 0 0 0 0 0 0 0 0 0 0 0 29 6 0 34 199 247 55 32 259 297 366 284 192
0 0 0 0 0 0 0 0 0 0 0 0 0 0 0 0 0 0 0 0 0 0 0 0 0 0 0 0 0 0 0 0 0 0 141 155 151 145 97 89 401 89 269 329 253
0 0 0 0 0 0 0 0 0 0 0 0 0 0 0 0 0 0 0 0 0 0 0 0 0 0 0 0 0 0 0 0 0 144 71 108 81 114 52 121 286 44 0 226 339
0 0 0 0 0 0 0 0 0 0 0 0 0 0 0 0 0 0 0 0 0 0 0 0 0 0 0 0 0 0 0 0 2 146 45 141 61 101 157 221 241 295 240 208 415
0 0 0 0 0 0 0 0 0 0 0 0 0 0 0 0 0 0 0 0 0 0 0 0 0 0 0 0 0 0 0 0 1 2 157 194 136 51 86 329 437 496 629 764 583
0 0 0 0 0 0 0 0 0 0 0 0 0 0 0 0 0 0 0 0 0 0 0 0 0 0 3 0 0 0 0 0 1 0 81 132 91 1 21 60 347 518 711 624 616
0 0 0 0 0 0 0 0 0 0 0 0 0 0 0 4 0 0 0 2 0 1 0 0 0 0 0 3 5 0 0 0 0 4 23 90 40 144 9 35 426 296 498 346 424
0 0 0 0 0 0 0 0 0 0 0 0 0 0 0 1 0 0 1 0 9 1 0 0 0 0 0 0 1 0 0 0 4 13 56 156 246 73 195 468 473 663 483 429 502
0 0 0 0 0 0 0 0 0 0 0 0 0 0 0 0 0 0 20 0 0 0 0 0 0 0 0 16 27 43 22 55 109 29 124 344 378 478 688 685 591 644 583 584 797
0 0 0 0 0 0 0 0 0 0 0 0 0 0 0 0 0 0 0 0 0 14 3 0 0 0 0 64 55 0 0 0 23 36 42 197 379 451 399 704 616 624 669 819 987
0 0 0 0 0 0 0 0 0 0 0 0 0 0 0 0 0 0 0 0 0 0 0 0 0 0 0 0 0 0 0 4 42 57 54 63 41 359 442 310 514 467 871 697 1166
0 0 0 0 0 0 0 0 0 0 0 0 0 0 0 3 0 0 0 0 0 0 0 19 4 33 0 0 0 17 9 26 5 2 43 4 154 352 451 295 531 626 738 694 799
CIN
0 0 0 0 0 0 0 0 0 0 0 0 0 0 0 0 0 0 0 0 0 -125 0 0 0 0 -14 -10 -32 -111 0 0 -55 0 -4 -105 -69 -71 -10 -27 -1 -5 -9 0 -37
0 0 0 0 0 0 0 0 0 0 0 0 0 0 0 0 0 0 0 0 0 0 0 0 0 0 0 -25 -23 -121 -96 -67 -7 -8 -36 -44 -138 -131 -85 -9 -12 -4 0 -7 -9
0 0 0 0 0 0 0 0 0 0 0 0 0 0 0 0 0 0 0 -648 0 0 0 0 0 0 -2 -20 -32 -176 -85 -60 -18 -15 -36 -128 -52 -153 -70 -26 -29 -2 0 0 -9
0 0 0 0 0 0 0 0 0 0 0 0 0 0 0 0 0 0 0 0 0 0 0 0 0 0 0 -2 -54 -93 -17 -6 -21 -32 -23 -121 -189 -145 -53 -27 -2 -20 -11 0 0
0 0 0 0 0 0 0 0 0 0 0 0 0 0 0 0 0 0 0 0 0 0 0 0 0 0 -8 -24 -93 -120 -141 -22 -19 -17 -33 -72 -52 -96 -21 -35 -1 -12 0 0 -6
0 0 0 0 0 0 0 0 0 0 0 0 0 0 0 0 0 0 0 0 0 0 0 0 0 0 -1 -27 -35 -53 -51 -13 -25 -34 -21 -25 -21 -18 -32 -59 -18 -10 -9 -3 0
0 0 0 0 0 0 0 0 0 0 0 0 0 0 0 0 0 0 0 0 0 0 0 0 0 0 0 -5 -66 -61 -34 -28 -24 -6 -31 -26 -15 -93 -72 -29 -38 -8 -19 -10 -6
0 0 0 0 0 0 0 0 0 0 0 0 0 0 0 0 0 0 0 0 0 0 0 0 0 0 0 -8 -109 -257 -34 -62 -66 -13 -46 -27 -26 -116 -37 -13 -25 -91 -23 -2 -7
0 0 0 0 0 0 0 0 0 0 0 0 0 0 0 0 0 0 0 0 0 0 0 0 0 0 0 0 -102 -16 -24 -55 -59 -41 -22 -58 -25 -142 -57 -11 -12 -42 -5 -31 -5
0 0 0 0 0 0 0 0 0 0 0 0 0 0 0 0 0 0 0 0 0 0 0 0 0 0 0 0 0 -21 -28 -47 -123 -100 -42 -46 -10 -239 -17 -90 -54 -14 -23 -12 -3
0 0 0 0 0 0 0 0 0 0 0 0 0 0 0 0 0 0 0 0 0 0 0 0 0 0 0 0 -38 -85 -57 -59 0 -228 -110 -31 -75 -1 0 -26 -42 -126 -48 -3 -17
0 0 0 0 0 0 0 0 0 0 0 0 0 0 0 0 0 0 0 0 0 0 0 0 0 0 0 -11 -27 -113 -20 -133 -158 -125 -90 -25 -24 -73 -99 -24 -41 -88 -27 -13 -5
0 0 0 0 0 0 0 0 0 0 0 0 0 0 0 0 0 0 0 0 0 0 0 0 0 0 0 -4 -70 -105 -59 -51 -47 -118 -18 -93 -88 -99 -73 -69 -8 -37 -33 -39 -26
0 0 0 0 0 0 0 0 0 0 0 0 0 0 0 0 0 0 0 0 0 0 0 0 0 0 0 0 -23 -7 -29 -14 -3 -52 -41 -98 -77 -189 -222 -61 -77 -77 -33 -17 -34
0 0 0 0 0 0 0 0 0 0 0 0 0 0 0 0 0 0 0 0 0 0 0 0 0 0 0 0 0 0 0 -4 -12 0 0 -50 -33 -257 -86 -263 -121 -110 -71 -12 -42
0 0 0 0 0 0 0 0 0 0 0 0 0 0 0 0 0 0 0 0 0 0 0 0 0 0 0 0 0 0 0 0 -13 -23 -19 -13 -30 -35 -15 -17 -286 -194 -176 -117 -52
0 0 0 0 0 0 0 0 0 0 0 0 0 0 0 0 0 0 0 0 0 0 0 0 0 0 0 0 0 0 0 0 0 0 -9 -25 -29 -33 -122 -41 -226 -293 -176 -160 -70
0 0 0 0 0 0 0 0 0 0 0 0 0 0 0 0 0 0 0 0 0 0 0 0 0 0 0 0 0 0 0 0 0 -32 -37 -53 -11 -90 -94 -212 -31 -109 -102 -76 -47
0 0 0 0 0 0 0 0 0 0 0 0 0 0 0 0 0 0 0 0 0 0 0 0 0 0 0 0 0 0 0 0 -5 -99 -177 -99 -30 -58 -149 -41 -43 -47 -73 -41 -12
0 0 0 0 0 0 0 0 0 0 0 0 0 0 0 0 0 0 0 0 0 0 0 0 0 0 0 0 0 0 0 0 -2 -50 -42 -89 -137 -106 -55 -20 -45 -27 -29 -16 -28
0 0 0 0 0 0 0 0 0 0 0 0 0 0 0 0 0 0 0 0 0 0 0 0 0 0 -3 0 0 0 0 0 -8 0 -16 -92 -158 -314 -110 -94 -36 -30 -17 -40 -18
0 0 0 0 0 0 0 0 0 0 0 0 0 0 0 -31 0 0 0 -14 -10 -8 0 0 0 0 0 -35 -12 0 0 0 -1 -18 -9 -48 -106 -178 -170 -84 -22 -23 -12 -48 -69
0 0 0 0 0 0 0 0 0 0 0 0 0 0 0 -24 0 -12 -5 0 -10 -7 0 0 0 0 0 0 0 -1 0 0 -5 -7 -14 -7 -2 -23 -45 -85 -99 -130 -134 -102 -61
0 0 0 0 0 0 0 0 0 0 0 0 0 0 0 0 0 0 -19 0 -5 0 0 0 0 0 0 -18 -75 -74 -116 -46 -33 -12 -15 -34 -60 -41 -52 -98 -104 -132 -142 -125 -95
0 0 0 0 0 0 0 0 0 0 0 0 0 0 0 0 0 0 -22 0 0 -38 -27 0 0 0 0 -56 -70 -22 0 -6 -28 -86 -41 -30 -102 -31 -53 -78 -61 -123 -136 -112 -106
0 0 0 0 0 0 0 0 0 0 0 0 0 0 -1 0 0 0 0 0 0 0 0 0 0 0 0 0 0 0 -11 -105 -133 -92 -51 -57 -48 -112 -70 -77 -116 -107 -111 -103 -45
0 0 0 0 0 0 0 0 0 0 0 0 0 0 0 -2 0 0 0 0 0 0 0 -72 -14 -14 -2 0 -20 -56 -92 -118 -103 -44 -25 -3 -48 -75 -49 -66 -98 -136 -62 -72 -47
Wind_Speed
nan nan nan nan nan nan nan nan nan nan nan nan nan nan nan nan nan nan nan nan nan nan nan nan nan nan nan nan 8 18 nan nan nan nan nan 8 4 19 nan nan nan nan nan nan nan
nan nan nan nan nan nan nan nan nan nan nan nan nan nan nan nan nan nan nan nan nan nan nan nan nan nan nan nan 11 13 nan nan 23 nan 15 16 28 21 14 nan nan nan nan nan nan
nan nan nan nan nan nan nan nan nan nan nan nan nan nan nan nan nan nan nan 16 nan nan nan nan nan nan nan nan 12 13 15 19 15 22 21 11 nan 20 11 nan nan nan nan nan nan
nan nan nan nan nan nan nan nan nan nan nan nan nan nan nan nan nan nan nan nan nan nan nan nan nan nan nan nan 11 10 1 13 16 19 nan nan nan nan 10 nan nan nan nan nan nan
nan nan nan nan nan nan nan nan nan nan nan nan nan nan nan nan nan nan nan nan nan nan nan nan nan nan nan 13 16 19 25 15 15 17 18 14 nan 15 nan 10 nan nan nan nan nan
nan nan nan nan nan nan nan nan nan nan nan nan nan nan nan nan nan nan nan nan nan nan nan nan nan nan nan nan 11 23 27 15 17 15 9 19 18 13 15 24 12 nan nan nan nan
nan nan nan nan nan nan nan nan nan nan nan nan nan nan nan nan nan nan nan nan nan nan nan nan nan nan nan nan 25 19 19 11 7 9 7 12 13 9 15 23 14 nan nan nan nan
nan nan nan nan nan nan nan nan nan nan nan nan nan nan nan nan nan nan nan nan nan nan nan nan nan nan nan nan 16 6 15 nan 20 2 6 nan nan nan nan nan nan nan nan nan nan
nan nan nan nan nan nan nan nan nan nan nan nan nan nan nan nan nan nan nan nan nan nan nan nan nan nan nan nan 19 13 nan nan 21 10 10 nan nan 3 nan nan 12 nan nan nan nan
nan nan nan nan nan nan nan nan nan nan nan nan nan nan nan nan nan nan nan nan nan nan nan nan nan nan nan nan nan 13 nan nan 24 18 12 nan nan nan nan nan nan nan nan nan nan
nan nan nan nan nan nan nan nan nan nan nan nan nan nan nan nan nan nan nan nan nan nan nan nan nan nan nan nan 12 20 nan nan nan nan 8 8 nan nan nan nan 4 6 3 nan nan
nan nan nan nan nan nan nan nan nan nan nan nan nan nan nan nan nan nan nan nan nan nan nan nan nan nan nan nan nan nan nan nan nan 8 7 12 22 14 nan 7 9 8 8 nan 3
nan nan nan nan nan nan nan nan nan nan nan nan nan nan nan nan nan nan nan nan nan nan nan nan nan nan nan nan nan nan 15 16 15 16 13 18 22 34 15 nan 10 9 9 5 3
nan nan nan nan nan nan nan nan nan nan nan nan nan nan nan nan nan nan nan nan nan nan nan nan nan nan nan nan nan nan nan 13 nan 30 24 25 26 nan nan 7 3 5 nan nan 4
nan nan nan nan nan nan nan nan nan nan nan nan nan nan nan nan nan nan nan nan nan nan nan nan nan nan nan nan nan nan nan nan nan nan nan 23 25 12 nan nan 5 10 10 14 7
nan nan nan nan nan nan nan nan nan nan nan nan nan nan nan nan nan nan nan nan nan nan nan nan nan nan nan nan nan nan nan nan nan nan nan nan 26 16 nan nan 9 13 13 4 4
nan nan nan nan nan nan nan nan nan nan nan nan nan nan nan nan nan nan nan nan nan nan nan nan nan nan nan nan nan nan nan nan nan nan 16 17 20 13 nan nan 18 nan 21 2 13
nan nan nan nan nan nan nan nan nan nan nan nan nan nan nan nan nan nan nan nan nan nan nan nan nan nan nan nan nan nan nan nan nan 11 nan 20 nan 7 nan 29 16 nan nan 11 26
nan nan nan nan nan nan nan nan nan nan nan nan nan nan nan nan nan nan nan nan nan nan nan nan nan nan nan nan nan nan nan nan nan 25 nan 7 nan 29 33 28 25 24 17 8 15
nan nan nan nan nan nan nan nan nan nan nan nan nan nan nan nan nan nan nan nan nan nan nan nan nan nan nan nan nan nan nan nan nan nan 15 23 21 nan nan 22 21 28 33 21 21
nan nan nan nan nan nan nan nan nan nan nan nan nan nan nan nan nan nan nan nan nan nan nan nan nan nan nan nan nan nan nan nan nan nan nan 25 nan nan nan nan 29 35 28 23 18
nan nan nan nan nan nan nan nan nan nan nan nan nan nan nan nan nan nan nan nan nan nan nan nan nan nan nan nan nan nan nan nan nan nan nan nan nan 24 nan nan 27 32 30 22 12
nan nan nan nan nan nan nan nan nan nan nan nan nan nan nan nan nan nan nan nan nan nan nan nan nan nan nan nan nan nan nan nan nan nan nan 21 19 nan 23 17 35 37 29 29 23
nan nan nan nan nan nan nan nan nan nan nan nan nan nan nan nan nan nan nan nan nan nan nan nan nan nan nan nan nan nan nan nan 25 nan 18 27 25 27 41 32 38 35 33 32 30
nan nan nan nan nan nan nan nan nan nan nan nan nan nan nan nan nan nan nan nan nan nan nan nan nan nan nan nan nan nan nan nan nan nan nan 17 34 28 31 35 34 37 28 25 22
nan nan nan nan nan nan nan nan nan nan nan nan nan nan nan nan nan nan nan nan nan nan nan nan nan nan nan nan nan nan nan nan nan nan nan nan nan 29 26 28 25 22 20 20 22
nan nan nan nan nan nan nan nan nan nan nan nan nan nan nan nan nan nan nan nan nan nan nan nan nan nan nan nan nan nan nan nan nan nan nan nan 25 38 42 35 32 28 26 22 22
Wind_Direction
nan nan nan nan nan nan nan nan nan nan nan nan nan nan nan nan nan nan nan nan nan nan nan nan nan nan nan nan 293 298 nan nan nan nan nan 52 100 202 nan nan nan nan nan nan nan
nan nan nan nan nan nan nan nan nan nan nan nan nan nan nan nan nan nan nan nan nan nan nan nan nan nan nan nan 274 310 nan nan 15 nan 347 269 236 208 203 nan nan nan nan nan nan
nan nan nan nan nan nan nan nan nan nan nan nan nan nan nan nan nan nan nan 9 nan nan nan nan nan nan nan nan 340 345 3 11 7 359 324 247 nan 208 224 nan nan nan nan nan nan
nan nan nan nan nan nan nan nan nan nan nan nan nan nan nan nan nan nan nan nan nan nan nan nan nan nan nan nan 288 291 163 311 303 312 nan nan nan nan 132 nan nan nan nan nan nan
nan nan nan nan nan nan nan nan nan nan nan nan nan nan nan nan nan nan nan nan nan nan nan nan nan nan nan 253 267 282 284 303 314 314 320 335 nan 332 nan 215 nan nan nan nan nan
nan nan nan nan nan nan nan nan nan nan nan nan nan nan nan nan nan nan nan nan nan nan nan nan nan nan nan nan 243 276 278 309 314 315 329 339 330 281 207 179 173 nan nan nan nan
nan nan nan nan nan nan nan nan nan nan nan nan nan nan nan nan nan nan nan nan nan nan nan nan nan nan nan nan 246 227 270 267 229 302 319 340 307 215 221 189 200 nan nan nan nan
nan nan nan nan nan nan nan nan nan nan nan nan nan nan nan nan nan nan nan nan nan nan nan nan nan nan nan nan 224 299 251 nan 278 166 339 nan nan nan nan nan nan nan nan nan nan
nan nan nan nan nan nan nan nan nan nan nan nan nan nan nan nan nan nan nan nan nan nan nan nan nan nan nan nan 254 219 nan nan 292 307 70 nan nan 256 nan nan 219 nan nan nan nan
nan nan nan nan nan nan nan nan nan nan nan nan nan nan nan nan nan nan nan nan nan nan nan nan nan nan nan nan nan 295 nan nan 312 336 28 nan nan nan nan nan nan nan nan nan nan
nan nan nan nan nan nan nan nan nan nan nan nan nan nan nan nan nan nan nan nan nan nan nan nan nan nan nan nan 319 321 nan nan nan nan 312 351 nan nan nan nan 155 243 118 nan nan
nan nan nan nan nan nan nan nan nan nan nan nan nan nan nan nan nan nan nan nan nan nan nan nan nan nan nan nan nan nan nan nan nan 310 320 343 290 138 nan 120 131 152 131 nan 305
nan nan nan nan nan nan nan nan nan nan nan nan nan nan nan nan nan nan nan nan nan nan nan nan nan nan nan nan nan nan 347 331 339 328 18 302 288 263 126 nan 148 145 101 246 74
nan nan nan nan nan nan nan nan nan nan nan nan nan nan nan nan nan nan nan nan nan nan nan nan nan nan nan nan nan nan nan 336 nan 308 331 326 300 nan nan 86 155 103 nan nan 58
nan nan nan nan nan nan nan nan nan nan nan nan nan nan nan nan nan nan nan nan nan nan nan nan nan nan nan nan nan nan nan nan nan nan nan 314 293 331 nan nan 28 351 12 78 43
nan nan nan nan nan nan nan nan nan nan nan nan nan nan nan nan nan nan nan nan nan nan nan nan nan nan nan nan nan nan nan nan nan nan nan nan 298 301 nan nan 34 336 296 16 338
nan nan nan nan nan nan nan nan nan nan nan nan nan nan nan nan nan nan nan nan nan nan nan nan nan nan nan nan nan nan nan nan nan nan 274 259 272 296 nan nan 343 nan 356 223 314
nan nan nan nan nan nan nan nan nan nan nan nan nan nan nan nan nan nan nan nan nan nan nan nan nan nan nan nan nan nan nan nan nan 271 nan 235 nan 189 nan 328 340 nan nan 291 284
nan nan nan nan nan nan nan nan nan nan nan nan nan nan nan nan nan nan nan nan nan nan nan nan nan nan nan nan nan nan nan nan nan 254 nan 286 nan 270 304 303 340 22 22 10 337
nan nan nan nan nan nan nan nan nan nan nan nan nan nan nan nan nan nan nan nan nan nan nan nan nan nan nan nan nan nan nan nan nan nan 316 311 295 nan nan 302 339 11 16 19 1
nan nan nan nan nan nan nan nan nan nan nan nan nan nan nan nan nan nan nan nan nan nan nan nan nan nan nan nan nan nan nan nan nan nan nan 292 nan nan nan nan 346 355 353 332 317
nan nan nan nan nan nan nan nan nan nan nan nan nan nan nan nan nan nan nan nan nan nan nan nan nan nan nan nan nan nan nan nan nan nan nan nan nan 329 nan nan 322 313 326 330 308
nan nan nan nan nan nan nan nan nan nan nan nan nan nan nan nan nan nan nan nan nan nan nan nan nan nan nan nan nan nan nan nan nan nan nan 267 288 nan 314 226 270 292 301 303 296
nan nan nan nan nan nan nan nan nan nan nan nan nan nan nan nan nan nan nan nan nan nan nan nan nan nan nan nan nan nan nan nan 216 nan 266 262 276 257 278 275 285 295 296 298 300
nan nan nan nan nan nan nan nan nan nan nan nan nan nan nan nan nan nan nan nan nan nan nan nan nan nan nan nan nan nan nan nan nan nan nan 287 283 283 274 279 292 294 289 292 298
nan nan nan nan nan nan nan nan nan nan nan nan nan nan nan nan nan nan nan nan nan nan nan nan nan nan nan nan nan nan nan nan nan nan nan nan nan 284 282 278 284 295 291 298 293
nan nan nan nan nan nan nan nan nan nan nan nan nan nan nan nan nan nan nan nan nan nan nan nan nan nan nan nan nan nan nan nan nan nan nan nan 272 275 276 280 292 294 279 290 297